Weather History for Rapid City, SD

Change the Weather History Date:

Wednesday, May 7, 2014

  Actual Average Record
Temperature  
Mean Temperature 43 °F 52 °F  
Max Temperature 52 °F 65 °F 90 °F (1992)
Min Temperature 33 °F 39 °F 25 °F (2010)
Degree Days  
Heating Degree Days 22 13  
Month to date heating degree days 111 98  
Since 1 July heating degree days 7403 6827  
Cooling Degree Days 0 0  
Month to date cooling degree days 0 0  
Year to date cooling degree days 0 2  
Moisture  
Dew Point 42 °F    
Average Humidity 86    
Maximum Humidity 100    
Minimum Humidity 71    
Precipitation  
Precipitation 0.53 in 0.10 in 0.88 in (2005)
Month to date precipitation 0.53 0.65  
Year to date precipitation 4.38 4.12  
Snow  
Snow 0.10 in 0.10 in - ()
Month to date snowfall 0.1 0.6  
Since 1 July snowfall 63.8 40.6  
Snow Depth 0.00 in    
Sea Level Pressure  
Sea Level Pressure 29.79 in    
Wind  
Wind Speed 23 mph (NNW)    
Max Wind Speed 36 mph    
Max Gust Speed 43 mph    
Visibility 7 miles    
Events Fog , Rain , Snow , Thunderstorm    
T = Trace of Precipitation, MM = Missing Value Source: NWS Daily Summary

Daily Weather History Graph

Daily Weather History Graph

Search for Another Location

Airport:

Trip Planner

Search our weather history database for the weather conditions in past years. The results will help you decide how hot, cold, wet, or windy it might be!

Date:

Astronomy

May. 07, 2014 Rise Set
Actual Time 5:35 AM MDT 8:02 PM MDT
Civil Twilight 5:03 AM MDT 8:35 PM MDT
Nautical Twilight 4:22 AM MDT 9:15 PM MDT
Astronomical Twilight 3:37 AM MDT 10:01 PM MDT
Moon 12:55 PM MDT (5/7) 1:50 AM MDT (5/7)
Length of Visible Light 15h 32m
Length of Day
14h 27m
First Quarter, 56% of the Moon is Illuminated
May 7
First Quarter
May 14
Full
May 21
Last Quarter
May 28
New
Jun 5
First Quarter

Hourly Weather History & Observations

Time (MDT) Temp. Windchill Dew Point Humidity Pressure Visibility Wind Dir Wind Speed Gust Speed Precip Events Conditions
12:52 AM 52.0 °F - 48.0 °F 86% 29.65 in 10.0 mi North 20.7 mph 31.1 mph N/A   Overcast
1:18 AM 51.1 °F - 48.9 °F 92% 29.68 in 9.0 mi NW 13.8 mph - 0.00 in Rain , Thunderstorm Light Rain
1:23 AM 51.1 °F - 48.9 °F 92% 29.68 in 8.0 mi NNW 18.4 mph 24.2 mph 0.00 in Rain , Thunderstorm Light Rain
1:41 AM 50.0 °F - 48.9 °F 96% 29.71 in 5.0 mi NNW 9.2 mph 25.3 mph 0.01 in Rain , Thunderstorm Rain
1:52 AM 50.0 °F - 48.9 °F 96% 29.69 in 5.0 mi NNW 5.8 mph - 0.03 in Rain , Thunderstorm Light Rain
1:59 AM 50.0 °F - 48.9 °F 96% 29.69 in 4.0 mi NNW 12.7 mph - 0.01 in Rain Rain
2:52 AM 50.0 °F - 48.2 °F 94% 29.69 in 5.0 mi NNW 13.8 mph - N/A   Mostly Cloudy
3:07 AM 50.0 °F - 48.0 °F 93% 29.69 in 5.0 mi NNW 13.8 mph - N/A   Overcast
3:12 AM 50.0 °F - 48.0 °F 93% 29.70 in 5.0 mi NW 12.7 mph - N/A Thunderstorm Overcast
3:26 AM 50.0 °F - 48.0 °F 93% 29.73 in 5.0 mi West 15.0 mph - 0.00 in Rain , Thunderstorm Light Thunderstorms and Rain
3:33 AM 51.1 °F - 48.9 °F 92% 29.73 in 3.0 mi NW 9.2 mph - 0.04 in Rain , Thunderstorm Heavy Rain
3:37 AM 51.1 °F - 48.9 °F 92% 29.72 in 2.5 mi NNW 10.4 mph - 0.07 in Rain , Thunderstorm Heavy Rain
3:44 AM 51.1 °F - 48.9 °F 92% 29.71 in 3.0 mi North 10.4 mph - 0.10 in Rain , Thunderstorm Thunderstorms and Rain
3:52 AM 51.1 °F - 48.9 °F 92% 29.67 in 3.0 mi NNE 18.4 mph - 0.12 in Rain , Thunderstorm Thunderstorms and Rain
4:01 AM 50.0 °F - 48.9 °F 96% 29.69 in 4.0 mi North 11.5 mph - 0.03 in Rain , Thunderstorm Light Rain
4:09 AM 50.0 °F - 48.9 °F 96% 29.71 in 6.0 mi NNW 5.8 mph - 0.03 in Rain , Thunderstorm Light Thunderstorms and Rain
4:36 AM 50.0 °F - 48.0 °F 93% 29.71 in 6.0 mi SSE 3.5 mph - 0.03 in   Overcast
4:52 AM 50.0 °F - 48.0 °F 93% 29.66 in 4.0 mi ENE 11.5 mph - 0.04 in Rain Rain
5:40 AM 50.0 °F - 48.0 °F 93% 29.71 in 8.0 mi NNW 8.1 mph - 0.01 in   Mostly Cloudy
5:52 AM 50.0 °F - 48.2 °F 94% 29.71 in 7.0 mi North 9.2 mph - N/A   Mostly Cloudy
6:02 AM 50.0 °F - 48.0 °F 93% 29.72 in 4.0 mi North 11.5 mph - N/A   Mostly Cloudy
6:07 AM 50.0 °F - 48.0 °F 93% 29.71 in 2.5 mi North 13.8 mph - N/A   Mostly Cloudy
6:14 AM 48.9 °F - 48.0 °F 97% 29.72 in 2.0 mi North 13.8 mph - 0.00 in Rain Light Rain
6:52 AM 48.9 °F - 48.0 °F 97% 29.71 in 2.0 mi NNW 19.6 mph - 0.00 in   Overcast
7:00 AM 48.2 °F - 48.2 °F 100% 29.73 in 1.2 mi NNW 15.0 mph - N/A   Overcast
7:09 AM 48.9 °F - 46.9 °F 93% 29.73 in 0.5 mi NNW 19.6 mph 26.5 mph N/A Fog Fog
7:33 AM 48.9 °F - 48.0 °F 97% 29.74 in 1.2 mi NNW 16.1 mph - N/A   Overcast
7:52 AM 50.0 °F - 48.0 °F 93% 29.73 in 1.2 mi NNW 21.9 mph 28.8 mph N/A   Overcast
8:04 AM 50.0 °F - 48.0 °F 93% 29.74 in 2.0 mi NNW 23.0 mph 32.2 mph 0.00 in Rain Light Rain
8:18 AM 48.0 °F - 45.0 °F 89% 29.74 in 5.0 mi NNW 27.6 mph 38.0 mph 0.00 in Rain Light Rain
8:34 AM 46.9 °F - 44.1 °F 90% 29.75 in 10.0 mi NNW 27.6 mph 35.7 mph 0.00 in   Overcast
8:52 AM 48.0 °F - 44.1 °F 86% 29.75 in 10.0 mi NNW 28.8 mph 35.7 mph 0.00 in   Mostly Cloudy
9:01 AM 48.0 °F - 43.0 °F 83% 29.76 in 10.0 mi NNW 27.6 mph 38.0 mph N/A   Scattered Clouds
9:52 AM 48.0 °F - 42.1 °F 80% 29.76 in 10.0 mi NNW 31.1 mph 39.1 mph N/A   Mostly Cloudy
9:59 AM 48.9 °F - 42.1 °F 77% 29.76 in 10.0 mi NNW 34.5 mph 41.4 mph N/A   Overcast
10:52 AM 48.9 °F - 41.0 °F 74% 29.78 in 10.0 mi NNW 32.2 mph 41.4 mph N/A   Overcast
11:37 AM 50.0 °F - 41.0 °F 71% 29.79 in 10.0 mi NNW 28.8 mph 38.0 mph N/A   Mostly Cloudy
11:45 AM 48.0 °F - 39.9 °F 74% 29.79 in 10.0 mi North 32.2 mph 39.1 mph N/A   Overcast
11:52 AM 48.9 °F - 39.9 °F 71% 29.79 in 10.0 mi NNW 32.2 mph 40.3 mph N/A   Mostly Cloudy
12:02 PM 48.0 °F - 39.0 °F 71% 29.79 in 10.0 mi North 31.1 mph 40.3 mph N/A   Overcast
12:52 PM 46.0 °F 36.5 °F 37.9 °F 73% 29.81 in 10.0 mi NNW 31.1 mph 36.8 mph N/A   Overcast
1:02 PM 46.0 °F 36.9 °F 37.9 °F 73% 29.81 in 10.0 mi North 28.8 mph 38.0 mph N/A   Overcast
1:52 PM 44.1 °F 33.8 °F 37.9 °F 79% 29.83 in 10.0 mi NNW 31.1 mph 41.4 mph N/A   Overcast
2:52 PM 42.1 °F 31.9 °F 37.0 °F 82% 29.85 in 10.0 mi North 26.5 mph 39.1 mph N/A   Overcast
3:52 PM 42.8 °F 32.5 °F 37.4 °F 81% 29.82 in 10.0 mi North 28.8 mph 39.1 mph N/A   Overcast
4:09 PM 42.1 °F 31.5 °F 37.0 °F 82% 29.83 in 10.0 mi North 28.8 mph 35.7 mph N/A   Overcast
4:52 PM 41.0 °F 29.3 °F 36.0 °F 82% 29.83 in 10.0 mi NNW 33.4 mph 40.3 mph N/A   Overcast
5:52 PM 39.9 °F 30.0 °F 36.0 °F 86% 29.86 in 10.0 mi North 21.9 mph 33.4 mph N/A   Overcast
6:52 PM 39.0 °F 27.6 °F 36.0 °F 89% 29.87 in 9.0 mi NNW 27.6 mph 33.4 mph N/A   Overcast
7:16 PM 39.0 °F 28.0 °F 35.1 °F 86% 29.85 in 10.0 mi North 25.3 mph 36.8 mph N/A   Overcast
7:32 PM 37.9 °F 26.6 °F 36.0 °F 93% 29.86 in 4.0 mi NNW 25.3 mph 36.8 mph 0.00 in Rain Light Rain
7:52 PM 37.9 °F 26.6 °F 35.1 °F 89% 29.91 in 8.0 mi NNW 25.3 mph 36.8 mph 0.00 in Rain Light Rain
8:52 PM 37.9 °F 28.9 °F 36.0 °F 93% 29.96 in 10.0 mi North 16.1 mph - 0.02 in Rain Light Rain
9:47 PM 35.6 °F 26.2 °F 33.8 °F 93% 29.93 in 8.0 mi North 15.0 mph - 0.09 in Rain Light Rain
9:52 PM 36.0 °F 26.7 °F 34.0 °F 93% 29.97 in 9.0 mi North 15.0 mph - 0.10 in Rain Light Rain
10:00 PM 36.0 °F 26.7 °F 34.0 °F 93% 29.93 in 9.0 mi North 15.0 mph - 0.00 in Rain Light Rain
10:22 PM 35.6 °F 26.2 °F 33.8 °F 93% 29.94 in 10.0 mi North 15.0 mph - N/A Rain Light Rain
10:38 PM 35.6 °F 25.5 °F 33.8 °F 93% 29.93 in 7.0 mi NNW 17.3 mph - N/A Rain Rain
10:52 PM 34.0 °F 23.0 °F 33.1 °F 96% 29.97 in 6.0 mi NNW 18.4 mph - 0.10 in Snow Light Snow
11:01 PM 33.1 °F 22.2 °F 32.0 °F 96% 29.92 in 2.5 mi NNW 17.3 mph - 0.03 in Snow Light Snow
11:12 PM 33.1 °F 21.5 °F 30.9 °F 92% 29.91 in 1.5 mi NNW 19.6 mph - 0.05 in Snow Light Snow
11:45 PM 33.1 °F 20.1 °F 30.9 °F 92% 29.85 in 1.8 mi North 25.3 mph - 0.10 in Snow Light Snow
11:52 PM 33.1 °F 20.1 °F 30.9 °F 92% 29.90 in 2.5 mi North 25.3 mph - 0.10 in Snow Light Snow